[ hide orbit diagram ]
For accurate long-term ephemerides, please instead use our Horizons system.This orbit viewer was implemented using two-body methods, and hence should not be used for determining accurate long-term trajectories (over several years or decades) or planetary encounter circumstances.
Orbital Elements at Epoch 2459000.5 (2020-May-31.0) TDB
Reference: JPL 31 (heliocentric ecliptic J2000)
Element | Value | Uncertainty (1-sigma) | Units |
e | .1574918896846162 | 3.1029e-08 | |
a | 2.393358441134063 | 7.7134e-09 | au |
q | 2.016423897547233 | 7.5359e-08 | au |
i | 1.662609280643687 | 3.8223e-06 | deg |
node | 37.57587724258688 | 0.00011015 | deg |
peri | 216.8550395361302 | 0.0001108 | deg |
M | 271.8980168658059 | 1.3078e-05 | deg |
tp | 2459331.473504686161 (2021-Apr-26.97350469) | 4.9773e-05 | TDB |
period | 1352.415206199523 3.70 | 6.5379e-06 1.79e-08 | d yr |
n | .266190440886605 | 1.2868e-09 | deg/d |
Q | 2.770292984720894 | 8.9282e-09 | au |
|
| | Orbit Determination Parameters
Additional Information
|
[ show covariance matrix ]
Physical Parameter Table
Parameter |
Symbol |
Value |
Units |
Sigma |
Reference |
Notes |
absolute magnitude |
H |
14.65 |
|
n/a |
E2021B10 |
|
diameter |
diameter |
2.640 |
km |
0.154 |
urn:nasa:pds:neowise_diameters_albedos::2.0[mainbelt] (http://adsabs.harvard.edu/abs/2011ApJ...741...68M) |
|
geometric albedo |
albedo |
0.305 |
|
0.054 |
urn:nasa:pds:neowise_diameters_albedos::2.0[mainbelt] (http://adsabs.harvard.edu/abs/2011ApJ...741...68M) |
|
|
11519 Adler | Discovered 1991 Apr. 8 by E. W. Elst at the European Southern Observatory. |
Alfred Adler (1870-1937) was an Austrian psychiatrist who introduced the term "inferiority feeling" (inferiority complex) into psychology: mental health is characterized by reason and social interest, mental disorder by inferiority, self concern and superiority over others". In 1934 the Austrian government closed his 30 clinics. |
NOTE: some special characters may not display properly (any characters within {} are an attempt to place the proper accent above a character) |
Reference: 20000523/MPCPages.arc | Last Updated: 2013-03-29 |
|
Alternate Designations
1991 GZ4 = 1976 GX = 1997 BX9 = 1999 NC11 |
|
|